Location: Roanoke
(37.2710°N, 79.9420°W)
Time: 20:56:25
(UTC-05:00)

Altair - All Passes

Search period start: 17 November 2019 00:00
Search period end: 27 November 2019 00:00
Orbit: 1502 x 1682 km, 47.2° (Epoch: 17 November)

Date Brightness Start Highest point End Pass type
(mag) Time Alt. Az. Time Alt. Az. Time Alt. Az.
17 Nov - 01:39:12 10° S 01:46:56 31° SE 01:54:37 10° ENE visible
17 Nov - 03:41:39 10° WSW 03:50:52 86° NNW 04:00:09 10° ENE visible
17 Nov - 05:47:37 10° W 05:56:25 48° N 06:05:23 10° ENE visible
17 Nov - 07:53:40 10° WNW 08:02:41 53° NNE 08:11:58 10° E daylight
17 Nov - 09:58:33 10° WNW 10:07:55 77° SW 10:17:38 10° SE daylight
17 Nov - 12:04:45 10° W 12:11:38 23° SW 12:18:41 10° S daylight
18 Nov - 01:14:26 10° S 01:21:53 28° SE 01:29:16 10° ENE visible
18 Nov - 03:16:29 10° SW 03:25:42 89° SSE 03:34:58 10° ENE visible
18 Nov - 05:22:20 10° W 05:31:09 49° N 05:40:07 10° ENE visible
18 Nov - 07:28:28 10° WNW 07:37:25 51° NNE 07:46:37 10° E daylight
18 Nov - 09:33:23 10° WNW 09:42:45 82° SW 09:52:28 10° SE daylight
18 Nov - 11:39:19 10° WNW 11:46:34 25° SW 11:54:02 10° S daylight
19 Nov - 00:49:44 10° S 00:56:51 25° SE 01:03:52 10° ENE visible
19 Nov - 02:51:20 10° SW 03:00:33 84° SE 03:09:47 10° ENE visible
19 Nov - 04:57:02 10° W 05:05:53 50° NNW 05:14:52 10° ENE visible
19 Nov - 07:03:15 10° WNW 07:12:08 50° NNE 07:21:17 10° E daylight
19 Nov - 09:08:13 10° WNW 09:17:35 87° SW 09:27:17 10° SE daylight
19 Nov - 11:13:55 10° WNW 11:21:29 28° SW 11:29:18 10° S daylight
20 Nov - 00:25:05 10° S 00:31:48 23° SE 00:38:26 10° E night (unlit)
20 Nov - 02:26:12 10° SW 02:35:25 79° SE 02:44:36 10° ENE visible
20 Nov - 04:31:44 10° W 04:40:38 52° NNW 04:49:38 10° ENE visible
20 Nov - 06:38:01 10° WNW 06:46:52 48° N 06:55:56 10° E visible
20 Nov - 08:43:04 10° WNW 08:52:24 88° NNE 09:02:05 10° SE daylight
20 Nov - 10:48:33 10° WNW 10:56:25 31° SW 11:04:32 10° S daylight
21 Nov - 00:00:31 10° S 00:06:45 20° SE 00:12:56 10° E night (unlit)
21 Nov - 02:01:06 10° SW 02:10:17 74° SE 02:19:25 10° ENE visible
21 Nov - 04:06:26 10° W 04:15:23 53° NNW 04:24:24 10° ENE visible
21 Nov - 06:12:48 10° WNW 06:21:36 47° N 06:30:36 10° E visible
21 Nov - 08:17:54 10° WNW 08:27:14 84° NNE 08:36:52 10° ESE daylight
21 Nov - 10:23:14 10° WNW 10:31:20 34° SW 10:39:42 10° S daylight
21 Nov - 23:36:03 10° SSE 23:41:43 18° SE 23:47:20 10° E night (unlit)
22 Nov - 01:36:01 10° SW 01:45:10 68° SE 01:54:14 10° ENE visible
22 Nov - 03:41:10 10° W 03:50:08 55° NNW 03:59:11 10° ENE visible
22 Nov - 05:47:33 10° WNW 05:56:20 47° N 06:05:16 10° E visible
22 Nov - 07:52:45 10° WNW 08:02:03 79° NNE 08:11:38 10° ESE daylight
22 Nov - 09:57:57 10° WNW 10:06:15 37° SW 10:14:49 10° SSE daylight
22 Nov - 23:11:42 10° SSE 23:16:42 16° SE 23:21:38 10° E night (unlit)
23 Nov - 01:10:57 10° SW 01:20:03 63° SE 01:29:03 10° ENE visible
23 Nov - 03:15:53 10° W 03:24:54 58° NNW 03:33:58 10° ENE visible
23 Nov - 05:22:18 10° WNW 05:31:03 46° N 05:39:56 10° ENE visible
23 Nov - 07:27:36 10° WNW 07:36:51 75° NNE 07:46:22 10° ESE daylight
23 Nov - 09:32:41 10° WNW 09:41:10 41° SW 09:49:55 10° SSE daylight
23 Nov - 22:47:33 10° SSE 22:51:40 14° ESE 22:55:44 10° E night (unlit)
24 Nov - 00:45:54 10° SW 00:54:56 59° SE 01:03:51 10° ENE visible
24 Nov - 02:50:36 10° W 02:59:41 60° NNW 03:08:46 10° ENE visible
24 Nov - 04:57:03 10° WNW 05:05:47 45° N 05:14:37 10° ENE visible
24 Nov - 07:02:26 10° WNW 07:11:39 71° NNE 07:21:08 10° ESE daylight
24 Nov - 09:07:26 10° WNW 09:16:04 44° SW 09:24:58 10° SSE daylight
24 Nov - 22:23:47 10° SE 22:26:39 12° ESE 22:29:30 10° ESE night (unlit)
25 Nov - 00:20:53 10° SSW 00:29:50 54° SE 00:38:39 10° ENE night (unlit)
25 Nov - 02:25:19 10° WSW 02:34:27 63° NNW 02:43:35 10° ENE visible
25 Nov - 04:31:46 10° WNW 04:40:30 45° N 04:49:18 10° ENE visible
25 Nov - 06:37:16 10° WNW 06:46:27 68° NNE 06:55:51 10° ESE visible
25 Nov - 08:42:12 10° WNW 08:50:58 48° SW 09:00:01 10° SSE daylight
25 Nov - 23:55:53 10° SSW 00:04:45 49° SE 00:13:26 10° ENE night (unlit)
26 Nov - 02:00:04 10° WSW 02:09:15 66° NNW 02:18:24 10° ENE visible
26 Nov - 04:06:31 10° WNW 04:15:13 45° N 04:24:00 10° ENE visible
26 Nov - 06:12:06 10° WNW 06:21:15 64° NNE 06:30:34 10° ESE visible
26 Nov - 08:17:00 10° WNW 08:25:52 53° SW 08:35:01 10° SSE daylight
26 Nov - 10:26:26 10° WSW 10:29:05 11° WSW 10:31:48 10° SW daylight
26 Nov - 23:30:55 10° SSW 23:39:39 45° SE 23:48:12 10° ENE night (unlit)
